DW7484 Weather Reports


Display with metric or nautical units.
time (UTC)temp
F
wind
direction
speed
MPH
gust
MPH
rain 1hr
in
rain 24hr
in
rain mn
in
humidity
%
barometer
mb
20210926043534 75 4 0.0 0.0 0.00 0.00 0.00 50 1018.2
20210926043032 76 4 0.0 0.0 0.00 0.00 0.00 50 1018.1
20210926042532 76 4 0.0 0.0 0.00 0.00 0.00 50 1018.1
20210926042034 76 4 0.0 0.0 0.00 0.00 0.00 49 1018.1
20210926041527 76 4 0.0 0.0 0.00 0.00 0.00 49 1018.1
20210926041043 77 4 0.0 0.0 0.00 0.00 0.00 48 1018.1
20210926040534 77 4 0.0 0.0 0.00 0.00 0.00 48 1018.1
20210926040047 77 4 0.0 0.0 0.00 0.00 0.00 47 1018.1
20210926035529 77 4 0.0 0.0 0.00 0.00 0.00 47 1018.1
20210926035033 77 4 0.0 0.0 0.00 0.00 0.00 47 1018.1
20210926034534 77 4 0.0 0.0 0.00 0.00 0.00 47 1018.2
20210926034033 77 4 0.0 0.0 0.00 0.00 0.00 47 1018.2
20210926033532 77 4 0.0 0.0 0.00 0.00 0.00 46 1018.2
20210926033033 77 4 0.0 0.0 0.00 0.00 0.00 46 1018.2
20210926032530 77 4 0.0 0.0 0.00 0.00 0.00 46 1018.2
20210926032031 77 4 0.0 0.0 0.00 0.00 0.00 46 1018.1
20210926031530 78 4 0.0 0.0 0.00 0.00 0.00 46 1018.1
20210926031031 78 4 0.0 0.0 0.00 0.00 0.00 45 1018.1
20210926030546 78 4 0.0 0.0 0.00 0.00 0.00 45 1018.0
20210926030057 78 4 0.0 0.0 0.00 0.00 0.00 45 1018.0
20210926025537 78 4 0.0 0.0 0.00 0.00 0.00 45 1018.0
20210926025037 78 4 0.0 0.0 0.00 0.00 0.00 45 1018.0
20210926024538 78 4 0.0 0.0 0.00 0.00 0.00 45 1018.0
20210926024037 78 4 0.0 0.0 0.00 0.00 0.00 44 1018.0
20210926023535 78 4 0.0 0.0 0.00 0.00 0.00 45 1018.0
20210926023034 78 4 0.0 0.0 0.00 0.00 0.00 44 1017.9
20210926022543 78 4 0.0 0.0 0.00 0.00 0.00 44 1017.9
20210926022043 78 4 0.0 0.0 0.00 0.00 0.00 45 1017.9
20210926021543 79 4 0.0 3.0 0.00 0.00 0.00 44 1017.9
20210926021023 79 4 1.0 3.0 0.00 0.00 0.00 44 1017.9
20210926020539 79 4 0.0 0.0 0.00 0.00 0.00 44 1017.8
20210926020050 79 4 0.0 0.0 0.00 0.00 0.00 44 1017.7
20210926015530 79 4 0.0 0.0 0.00 0.00 0.00 44 1017.7
20210926015032 80 4 0.0 0.0 0.00 0.00 0.00 43 1017.7
20210926014532 80 4 0.0 0.0 0.00 0.00 0.00 43 1017.6
20210926014030 80 4 0.0 0.0 0.00 0.00 0.00 43 1017.6
20210926013524 80 4 0.0 0.0 0.00 0.00 0.00 42 1017.5
20210926013046 81 4 0.0 0.0 0.00 0.00 0.00 42 1017.4
20210926012527 81 4 0.0 0.0 0.00 0.00 0.00 41 1017.3
20210926012032 81 4 0.0 0.0 0.00 0.00 0.00 40 1017.3
20210926011532 81 4 0.0 0.0 0.00 0.00 0.00 40 1017.2
20210926011032 81 4 0.0 0.0 0.00 0.00 0.00 40 1017.2
20210926010530 81 4 0.0 0.0 0.00 0.00 0.00 40 1017.1
20210926010056 82 3 0.0 0.0 0.00 0.00 0.00 40 1017.1
20210926005533 82 3 0.0 0.0 0.00 0.00 0.00 40 1017.1
20210926005034 82 3 0.0 0.0 0.00 0.00 0.00 39 1017.1
20210926004535 82 3 0.0 0.0 0.00 0.00 0.00 39 1017.0
20210926004028 83 3 0.0 0.0 0.00 0.00 0.00 38 1017.0
20210926003529 83 3 0.0 0.0 0.00 0.00 0.00 37 1017.0
20210926003033 83 3 0.0 0.0 0.00 0.00 0.00 37 1017.0
20210926002532 84 3 0.0 0.0 0.00 0.00 0.00 36 1017.0
20210926002032 84 3 0.0 0.0 0.00 0.00 0.00 36 1017.0
20210926001532 84 3 0.0 0.0 0.00 0.00 0.00 35 1017.0
20210926001030 85 3 0.0 2.0 0.00 0.00 0.00 35 1017.1
20210926000527 85 2 1.0 2.0 0.00 0.00 0.00 34 1017.0
20210926000059 85 2 0.0 5.0 0.00 0.00 0.00 34 1017.0
20210925235538 86 2 0.0 5.0 0.00 0.00 0.00 33 1017.1
20210925235034 86 2 2.0 5.0 0.00 0.00 0.00 33 1017.1
20210925234532 86 2 0.0 5.0 0.00 0.00 0.00 34 1017.1
20210925234033 86 2 2.0 5.0 0.00 0.00 0.00 33 1017.1
20210925233532 86 2 1.0 4.0 0.00 0.00 0.00 35 1017.0
20210925233030 86 2 0.0 5.0 0.00 0.00 0.00 35 1017.0
20210925232530 86 3 1.0 5.0 0.00 0.00 0.00 35 1017.0
20210925232027 87 2 2.0 8.0 0.00 0.00 0.00 34 1017.0
20210925231527 87 2 3.0 8.0 0.00 0.00 0.00 34 1017.0
20210925231026 87 2 2.0 6.0 0.00 0.00 0.00 35 1017.0
20210925230545 87 2 0.0 4.0 0.00 0.00 0.00 35 1017.0
20210925230053 87 2 1.0 4.0 0.00 0.00 0.00 34 1017.0
20210925225532 88 2 1.0 7.0 0.00 0.00 0.00 33 1017.0
20210925225032 88 2 3.0 6.0 0.00 0.00 0.00 33 1017.0
20210925224534 88 2 2.0 8.0 0.00 0.00 0.00 32 1017.0
20210925224032 88 2 4.0 10.0 0.00 0.00 0.00 32 1017.0
20210925223534 88 2 3.0 6.0 0.00 0.00 0.00 32 1017.0
20210925223031 88 1 0.0 4.0 0.00 0.00 0.00 30 1017.0
20210925222531 88 2 1.0 6.0 0.00 0.00 0.00 32 1017.0
20210925222029 88 1 2.0 6.0 0.00 0.00 0.00 30 1017.0
20210925221529 88 2 2.0 6.0 0.00 0.00 0.00 31 1017.1
20210925221028 89 1 3.0 7.0 0.00 0.00 0.00 31 1017.1
20210925220529 89 1 2.0 7.0 0.00 0.00 0.00 30 1017.1
20210925220055 89 2 0.0 4.0 0.00 0.00 0.00 30 1017.1
20210925215532 89 1 2.0 4.0 0.00 0.00 0.00 29 1017.2
20210925215038 89 360 2.0 7.0 0.00 0.00 0.00 28 1017.2
20210925214534 89 360 3.0 7.0 0.00 0.00 0.00 27 1017.3
20210925214035 89 360 1.0 8.0 0.00 0.00 0.00 29 1017.3
20210925213534 89 360 5.0 8.0 0.00 0.00 0.00 29 1017.3
20210925213033 89 360 1.0 5.0 0.00 0.00 0.00 30 1017.3
20210925212533 88 2 0.0 9.0 0.00 0.00 0.00 30 1017.4
20210925212033 88 2 3.0 9.0 0.00 0.00 0.00 29 1017.5
20210925211533 88 2 0.0 4.0 0.00 0.00 0.00 29 1017.5
20210925211027 88 2 0.0 6.0 0.00 0.00 0.00 30 1017.5
20210925210544 88 2 2.0 6.0 0.00 0.00 0.00 29 1017.6
20210925210058 88 2 2.0 7.0 0.00 0.00 0.00 30 1017.6
20210925205527 88 2 0.0 8.0 0.00 0.00 0.00 32 1017.7
20210925205045 88 2 5.0 8.0 0.00 0.00 0.00 31 1017.8
20210925204544 88 2 2.0 7.0 0.00 0.00 0.00 31 1017.9
20210925204040 88 1 4.0 9.0 0.00 0.00 0.00 31 1017.9
20210925203535 88 1 2.0 9.0 0.00 0.00 0.00 31 1018.0
20210925203033 88 2 0.0 7.0 0.00 0.00 0.00 33 1017.9
20210925202529 88 2 2.0 7.0 0.00 0.00 0.00 33 1018.0
20210925202028 88 2 1.0 7.0 0.00 0.00 0.00 33 1018.1
20210925201543 88 1 4.0 7.0 0.00 0.00 0.00 33 1018.1
20210925201041 88 2 3.0 6.0 0.00 0.00 0.00 33 1018.2
20210925200540 88 360 2.0 7.0 0.00 0.00 0.00 34 1018.3
20210925200050 87 360 1.0 8.0 0.00 0.00 0.00 34 1018.3
20210925195530 88 2 4.0 7.0 0.00 0.00 0.00 33 1018.4
20210925195031 88 1 1.0 4.0 0.00 0.00 0.00 33 1018.4
20210925194529 87 1 0.0 6.0 0.00 0.00 0.00 32 1018.5
20210925194043 87 359 1.0 8.0 0.00 0.00 0.00 32 1018.6
20210925193542 87 360 4.0 8.0 0.00 0.00 0.00 33 1018.7
20210925193037 87 2 2.0 7.0 0.00 0.00 0.00 33 1018.8
20210925192536 87 2 0.0 7.0 0.00 0.00 0.00 33 1018.9
20210925192029 87 2 2.0 7.0 0.00 0.00 0.00 35 1019.0
20210925191530 86 1 1.0 7.0 0.00 0.00 0.00 35 1019.1
20210925191028 86 2 3.0 7.0 0.00 0.00 0.00 34 1019.3
20210925190545 86 2 2.0 9.0 0.00 0.00 0.00 35 1019.3
20210925190052 86 2 3.0 8.0 0.00 0.00 0.00 35 1019.3
20210925185536 86 360 0.0 7.0 0.00 0.00 0.00 34 1019.5
20210925185033 86 360 3.0 7.0 0.00 0.00 0.00 34 1019.6
20210925184533 86 360 0.0 1.0 0.00 0.00 0.00 38 1019.7
20210925184030 85 5 0.0 1.0 0.00 0.00 0.00 37 1019.6
20210925183529 86 360 0.0 0.0 0.00 0.00 0.00 36 1019.8
20210925183027 86 360 0.0 0.0 0.00 0.00 0.00 36 1019.8
20210925182529 86 1 0.0 4.0 0.00 0.00 0.00 37 1019.9
20210925182028 86 1 1.0 6.0 0.00 0.00 0.00 37 1020.0
20210925181527 86 360 4.0 7.0 0.00 0.00 0.00 37 1020.1
20210925181043 85 2 1.0 5.0 0.00 0.00 0.00 39 1020.1
20210925180541 85 2 1.0 6.0 0.00 0.00 0.00 37 1020.2
20210925180059 85 1 1.0 6.0 0.00 0.00 0.00 37 1020.2
20210925175539 84 3 1.0 4.0 0.00 0.00 0.00 38 1020.3
20210925175037 85 2 1.0 4.0 0.00 0.00 0.00 39 1020.3
20210925174536 84 2 1.0 3.0 0.00 0.00 0.00 40 1020.3
20210925174035 84 2 0.0 3.0 0.00 0.00 0.00 41 1020.4
20210925173534 83 2 0.0 5.0 0.00 0.00 0.00 41 1020.5
20210925173031 83 2 2.0 5.0 0.00 0.00 0.00 42 1020.5
20210925172532 83 2 0.0 4.0 0.00 0.00 0.00 44 1020.5
20210925172034 82 2 0.0 6.0 0.00 0.00 0.00 42 1020.6
20210925171532 82 2 3.0 6.0 0.00 0.00 0.00 45 1020.6
20210925171032 82 3 0.0 5.0 0.00 0.00 0.00 48 1020.7
20210925170528 81 3 1.0 5.0 0.00 0.00 0.00 45 1020.7
20210925170054 81 2 1.0 5.0 0.00 0.00 0.00 45 1020.8
20210925165535 81 4 1.0 5.0 0.00 0.00 0.00 49 1020.9
20210925165033 81 3 1.0 3.0 0.00 0.00 0.00 49 1020.9
20210925164532 80 4 1.0 6.0 0.00 0.00 0.00 50 1020.9
20210925164036 79 4 1.0 6.0 0.00 0.00 0.00 52 1021.0
20210925163535 79 4 2.0 7.0 0.00 0.00 0.00 52 1020.9
20210925163031 79 4 2.0 7.0 0.00 0.00 0.00 52 1021.0
20210925162529 79 4 1.0 4.0 0.00 0.00 0.00 52 1021.1
20210925162032 78 4 1.0 4.0 0.00 0.00 0.00 54 1021.0
20210925161527 78 4 1.0 3.0 0.00 0.00 0.00 55 1021.1
20210925161026 77 5 0.0 3.0 0.00 0.00 0.00 55 1021.1
20210925160545 77 4 0.0 5.0 0.00 0.00 0.00 56 1021.1
20210925160052 77 3 2.0 5.0 0.00 0.00 0.00 56 1021.2
20210925155531 76 4 2.0 5.0 0.00 0.00 0.00 56 1021.2
20210925155028 76 3 0.0 4.0 0.00 0.00 0.00 57 1021.2
20210925154532 76 3 0.0 4.0 0.00 0.00 0.00 57 1021.2
20210925154032 76 4 2.0 4.0 0.00 0.00 0.00 59 1021.2
20210925153532 76 3 1.0 4.0 0.00 0.00 0.00 59 1021.2
20210925153031 75 3 1.0 4.0 0.00 0.00 0.00 60 1021.1
20210925152530 74 4 0.0 4.0 0.00 0.00 0.00 60 1021.1
20210925152031 74 4 0.0 4.0 0.00 0.00 0.00 62 1021.1
20210925151527 74 4 1.0 4.0 0.00 0.00 0.00 61 1021.1
20210925151045 73 4 1.0 4.0 0.00 0.00 0.00 62 1021.0
20210925150544 73 4 0.0 4.0 0.00 0.00 0.00 63 1021.0
20210925150053 72 4 0.0 4.0 0.00 0.00 0.00 64 1020.9
20210925145527 72 4 2.0 4.0 0.00 0.00 0.00 64 1020.9
20210925145028 71 4 2.0 6.0 0.00 0.00 0.00 65 1020.9
20210925144544 71 6 3.0 7.0 0.00 0.00 0.00 65 1020.9
20210925144040 71 5 5.0 7.0 0.00 0.00 0.00 65 1020.9
20210925143539 71 6 4.0 6.0 0.00 0.00 0.00 65 1020.8
20210925143033 70 5 3.0 5.0 0.00 0.00 0.00 66 1020.8
20210925142533 70 5 3.0 5.0 0.00 0.00 0.00 67 1020.8
20210925142031 69 5 3.0 5.0 0.00 0.00 0.00 68 1020.7
20210925141529 69 6 3.0 6.0 0.00 0.00 0.00 68 1020.7
20210925141029 69 5 2.0 6.0 0.00 0.00 0.00 69 1020.6
20210925140531 69 6 3.0 5.0 0.00 0.00 0.00 69 1020.6
20210925140104 68 6 3.0 5.0 0.00 0.00 0.00 70 1020.6
20210925135535 68 6 1.0 5.0 0.00 0.00 0.00 70 1020.5
20210925135036 68 6 0.0 0.0 0.00 0.00 0.00 71 1020.4
20210925134537 67 6 0.0 0.0 0.00 0.00 0.00 71 1020.3
20210925134031 67 6 0.0 0.0 0.00 0.00 0.00 71 1020.3
20210925133532 67 6 0.0 0.0 0.00 0.00 0.00 73 1020.3
20210925133031 67 6 0.0 0.0 0.00 0.00 0.00 72 1020.3
20210925132541 66 6 0.0 0.0 0.00 0.00 0.00 73 1020.2
20210925132038 66 6 0.0 0.0 0.00 0.00 0.00 72 1020.1
20210925131534 66 6 0.0 0.0 0.00 0.00 0.00 72 1020.1
20210925131029 66 6 0.0 0.0 0.00 0.00 0.00 71 1020.1
20210925130531 65 6 0.0 0.0 0.00 0.00 0.00 71 1020.1
20210925130057 65 6 0.0 0.0 0.00 0.00 0.00 72 1020.0
20210925125533 65 7 0.0 0.0 0.00 0.00 0.00 72 1019.9
20210925125031 0 0.0 0.0 0.00 0.00 0.00 1019.9
20210925124530 0 0.0 0.0 0.00 0.00 0.00 1019.9
20210925124027 0 0.0 0.0 0.00 0.00 0.00 1019.7
20210925123043 0 0.0 0.0 0.00 0.00 0.00 1019.6
20210925122542 0 0.0 0.0 0.00 0.00 0.00 1019.6
20210925122040 0 0.0 0.0 0.00 0.00 0.00 1019.6
20210925121533 0 0.0 0.0 0.00 0.00 0.00 1019.6
20210925121028 0 0.0 0.0 0.00 0.00 0.00 1019.6
20210925120543 0 0.0 0.0 0.00 0.00 0.00 1019.5
20210925115546 65 7 0.0 0.0 0.00 0.00 0.00 69 1019.4
20210925115040 65 7 0.0 0.0 0.00 0.00 0.00 69 1019.4
20210925114537 65 7 0.0 0.0 0.00 0.00 0.00 69 1019.4
20210925114037 65 6 0.0 0.0 0.00 0.00 0.00 69 1019.3
20210925113536 65 6 0.0 0.0 0.00 0.00 0.00 68 1019.3
20210925113032 66 6 0.0 0.0 0.00 0.00 0.00 68 1019.2
20210925112542 66 7 0.0 0.0 0.00 0.00 0.00 68 1019.2
20210925112039 66 7 0.0 0.0 0.00 0.00 0.00 67 1019.2
20210925111533 66 7 0.0 0.0 0.00 0.00 0.00 66 1019.1
20210925111030 67 7 0.0 0.0 0.00 0.00 0.00 66 1019.1
20210925110527 67 6 0.0 0.0 0.00 0.00 0.00 65 1019.0
20210925110054 67 6 0.0 0.0 0.00 0.00 0.00 65 1019.0
20210925105534 67 6 0.0 0.0 0.00 0.00 0.00 64 1018.9
20210925105030 67 6 0.0 0.0 0.00 0.00 0.00 64 1018.8
20210925104529 68 6 0.0 0.0 0.00 0.00 0.00 64 1018.7
20210925104024 68 6 0.0 0.0 0.00 0.00 0.00 63 1018.6
20210925103528 68 6 0.0 0.0 0.00 0.00 0.00 63 1018.6
20210925103044 68 6 0.0 0.0 0.00 0.00 0.00 63 1018.5
20210925102540 67 6 0.0 0.0 0.00 0.00 0.00 63 1018.5
20210925102043 67 6 0.0 0.0 0.00 0.00 0.00 63 1018.4
20210925101542 68 6 0.0 0.0 0.00 0.00 0.00 63 1018.4
20210925101040 68 6 0.0 0.0 0.00 0.00 0.00 63 1018.3
20210925100536 67 6 0.0 4.0 0.00 0.00 0.00 63 1018.3
20210925100047 67 6 0.0 4.0 0.00 0.00 0.00 63 1018.3
20210925095542 67 6 0.0 4.0 0.00 0.00 0.00 63 1018.3
20210925095024 67 6 1.0 4.0 0.00 0.00 0.00 63 1018.3
20210925094546 67 6 0.0 0.0 0.00 0.00 0.00 63 1018.2
20210925094044 67 6 0.0 0.0 0.00 0.00 0.00 63 1018.2
20210925093545 67 6 0.0 0.0 0.00 0.00 0.00 63 1018.2
20210925093024 67 6 0.0 0.0 0.00 0.00 0.00 63 1018.2
20210925092546 67 6 0.0 0.0 0.00 0.00 0.00 63 1018.2
20210925092043 67 6 0.0 0.0 0.00 0.00 0.00 63 1018.2
20210925091542 67 6 0.0 0.0 0.00 0.00 0.00 64 1018.2
20210925091043 67 6 0.0 0.0 0.00 0.00 0.00 64 1018.1
20210925090540 67 6 0.0 0.0 0.00 0.00 0.00 64 1018.1
20210925090052 67 6 0.0 0.0 0.00 0.00 0.00 64 1018.1
20210925085534 67 6 0.0 0.0 0.00 0.00 0.00 64 1018.0
20210925085035 67 6 0.0 0.0 0.00 0.00 0.00 65 1018.1
20210925084531 67 6 0.0 0.0 0.00 0.00 0.00 64 1018.0
20210925084031 67 6 0.0 0.0 0.00 0.00 0.00 64 1018.0
20210925083532 68 6 0.0 3.0 0.00 0.00 0.00 63 1018.0
20210925083032 68 6 0.0 4.0 0.00 0.00 0.00 62 1018.0
20210925082532 68 6 3.0 4.0 0.00 0.00 0.00 62 1018.0
20210925082031 68 6 1.0 3.0 0.00 0.00 0.00 62 1018.0
20210925081530 68 5 0.0 0.0 0.00 0.00 0.00 63 1018.1
20210925081030 68 5 0.0 0.0 0.00 0.00 0.00 62 1018.1
20210925080546 68 5 0.0 0.0 0.00 0.00 0.00 62 1018.1
20210925080055 68 5 0.0 0.0 0.00 0.00 0.00 63 1018.2
20210925075533 69 5 0.0 0.0 0.00 0.00 0.00 63 1018.2
20210925075033 69 5 0.0 0.0 0.00 0.00 0.00 63 1018.2
20210925074533 69 5 0.0 0.0 0.00 0.00 0.00 63 1018.2
20210925074030 69 5 0.0 0.0 0.00 0.00 0.00 63 1018.2
20210925073528 69 5 0.0 0.0 0.00 0.00 0.00 62 1018.2
20210925073042 70 5 0.0 0.0 0.00 0.00 0.00 61 1018.2
20210925072541 70 5 0.0 4.0 0.00 0.00 0.00 60 1018.0
20210925072041 70 5 2.0 4.0 0.00 0.00 0.00 60 1018.0
20210925071526 70 5 0.0 0.0 0.00 0.00 0.00 60 1018.1
20210925071030 70 5 0.0 0.0 0.00 0.00 0.00 60 1018.0
20210925070527 70 5 0.0 0.0 0.00 0.00 0.00 60 1018.0
20210925070058 70 4 0.0 0.0 0.00 0.00 0.00 60 1018.0
20210925065535 70 4 0.0 0.0 0.00 0.00 0.00 59 1018.0
20210925065035 70 4 0.0 0.0 0.00 0.00 0.00 59 1017.9
20210925064536 70 4 0.0 0.0 0.00 0.00 0.00 59 1017.9
20210925064035 70 4 0.0 0.0 0.00 0.00 0.00 59 1018.0
20210925063530 70 4 0.0 0.0 0.00 0.00 0.00 59 1017.9
20210925063029 70 4 0.0 0.0 0.00 0.00 0.00 59 1017.9
20210925062528 70 4 0.0 0.0 0.00 0.00 0.00 59 1017.8
20210925062029 70 4 0.0 0.0 0.00 0.00 0.00 59 1017.7
20210925061529 70 4 0.0 0.0 0.00 0.00 0.00 59 1017.6
20210925061029 70 4 0.0 0.0 0.00 0.00 0.00 59 1017.6
20210925060541 71 4 0.0 0.0 0.00 0.00 0.00 59 1017.5
20210925060050 71 4 0.0 0.0 0.00 0.00 0.00 59 1017.5
20210925055530 71 4 0.0 0.0 0.00 0.00 0.00 59 1017.6
20210925055030 71 4 0.0 0.0 0.00 0.00 0.00 59 1017.6
20210925054528 71 4 0.0 0.0 0.00 0.00 0.00 58 1017.6
20210925054029 71 4 0.0 0.0 0.00 0.00 0.00 58 1017.7
20210925053545 71 4 0.0 0.0 0.00 0.00 0.00 58 1017.8
20210925053043 71 4 0.0 0.0 0.00 0.00 0.00 58 1017.9
20210925052542 71 4 0.0 0.0 0.00 0.00 0.00 58 1017.9
20210925052042 71 4 0.0 0.0 0.00 0.00 0.00 57 1017.9
20210925051538 71 4 0.0 0.0 0.00 0.00 0.00 57 1017.9
20210925051037 71 4 0.0 0.0 0.00 0.00 0.00 57 1017.9
20210925050535 72 4 0.0 0.0 0.00 0.00 0.00 56 1017.8
20210925050107 72 4 0.0 0.0 0.00 0.00 0.00 56 1017.8
20210925045527 72 4 0.0 0.0 0.00 0.00 0.00 55 1017.8
20210925045042 72 4 0.0 0.0 0.00 0.00 0.00 55 1017.8
20210925044540 72 4 0.0 0.0 0.00 0.00 0.00 55 1017.8
20210925044040 72 4 0.0 0.0 0.00 0.00 0.00 54 1017.9